Station Historical Data
Daily Summary for April 10, 2017 Units:  Metric    English   Both
« Previous Day
Next Day »
Daily Weekly Monthly Yearly Custom
  High: Low: Average:
Temperature: 24.3 °C 12.1 °C 18.9 °C
Dew Point: 11.8 °C -0.3 °C 5.7 °C
Humidity: 78% 30% 43%
Wind Speed: 32.2km/h 0km/h 8.2km/h
Wind Gust: 45.1km/h - -
Wind- - SW
Pressure: 1015.8 hPa 1011.1 hPa -
Precipitation: 0 mm    
Historical Graphs
 
 
Tabular Data for April 10, 2017
Time Temperature Dew Point Pressure Wind Wind Speed Wind Gust Humidity Rainfall Rate (Hourly)
00:04 17.1 °C 1.4 °C 1014.1 hPa SSE 3.2 km/h 9.7 km/h 35% 0 mm
00:09 17 °C 1.4 °C 1014.1 hPa South 4.8 km/h 12.9 km/h 35% 0 mm
00:14 16.9 °C 1.3 °C 1014.1 hPa SSW 4.8 km/h 12.9 km/h 35% 0 mm
00:19 16.8 °C 1.2 °C 1014.1 hPa SSW 3.2 km/h 9.7 km/h 35% 0 mm
00:24 16.7 °C 1.2 °C 1014.1 hPa South 4.8 km/h 9.7 km/h 35% 0 mm
00:29 16.6 °C 1.4 °C 1014.1 hPa South 3.2 km/h 6.4 km/h 36% 0 mm
00:34 16.4 °C 1.3 °C 1014.1 hPa SSW 1.6 km/h 8 km/h 36% 0 mm
00:39 16.2 °C 1.1 °C 1014.1 hPa SSW 1.6 km/h 4.8 km/h 36% 0 mm
00:44 16.1 °C 0.9 °C 1014.1 hPa SSW 3.2 km/h 6.4 km/h 36% 0 mm
00:49 15.9 °C 1.3 °C 1014.1 hPa SW 1.6 km/h 6.4 km/h 37% 0 mm
00:54 15.8 °C 1.1 °C 1014.1 hPa SSW 1.6 km/h 6.4 km/h 37% 0 mm
00:59 15.7 °C 1.4 °C 1014.1 hPa SSW 1.6 km/h 4.8 km/h 38% 0 mm
01:04 15.5 °C 1.2 °C 1014.1 hPa Calm     38% 0 mm
01:09 15.4 °C 1.1 °C 1014.4 hPa Calm     38% 0 mm
01:14 15.2 °C 1.3 °C 1014.4 hPa Calm   3.2 km/h 39% 0 mm
01:19 15 °C 1.2 °C 1014.4 hPa Calm   3.2 km/h 39% 0 mm
01:24 14.7 °C 1.2 °C 1014.1 hPa Calm   3.2 km/h 40% 0 mm
01:29 14.5 °C 1.1 °C 1014.4 hPa Calm   3.2 km/h 40% 0 mm
01:34 14.3 °C 1.2 °C 1014.1 hPa Calm     41% 0 mm
01:39 14.1 °C 1 °C 1014.1 hPa Calm     41% 0 mm
01:44 13.8 °C 1.1 °C 1014.1 hPa Calm     42% 0 mm
01:49 13.6 °C 0.9 °C 1014.1 hPa Calm     42% 0 mm
01:54 13.3 °C 0.9 °C 1014.1 hPa Calm     43% 0 mm
01:59 13 °C 0.7 °C 1014.1 hPa Calm     43% 0 mm
02:04 12.8 °C 1.2 °C 1014.1 hPa SE 8 km/h 12.9 km/h 45% 0 mm
02:09 12.6 °C 1 °C 1013.8 hPa SSW 3.2 km/h 8 km/h 45% 0 mm
02:14 12.4 °C 1.1 °C 1013.8 hPa SSW 3.2 km/h 8 km/h 46% 0 mm
02:19 12.4 °C 0.8 °C 1013.8 hPa SSW 3.2 km/h 8 km/h 45% 0 mm
02:24 12.3 °C 1.1 °C 1013.8 hPa SSW 3.2 km/h 6.4 km/h 46% 0 mm
02:29 12.3 °C 1 °C 1013.8 hPa SSW 1.6 km/h 8 km/h 46% 0 mm
02:34 12.2 °C 0.9 °C 1013.8 hPa SSW 1.6 km/h 8 km/h 46% 0 mm
02:39 12.1 °C 0.8 °C 1013.8 hPa South 4.8 km/h 4.8 km/h 46% 0 mm
02:44 12.1 °C 0.8 °C 1013.8 hPa South 3.2 km/h 6.4 km/h 46% 0 mm
02:54 12.1 °C 0.8 °C 1013.8 hPa SSW 3.2 km/h 6.4 km/h 46% 0 mm
02:59 12.1 °C 0.4 °C 1013.8 hPa South 1.6 km/h 6.4 km/h 45% 0 mm
03:04 12.1 °C 0.5 °C 1013.8 hPa South 3.2 km/h 6.4 km/h 45% 0 mm
03:09 12.2 °C 0.6 °C 1013.8 hPa South 1.6 km/h 6.4 km/h 45% 0 mm
03:14 12.3 °C 0.7 °C 1013.4 hPa South 3.2 km/h 6.4 km/h 45% 0 mm
03:19 12.3 °C 0.7 °C 1013.4 hPa SSE 3.2 km/h 6.4 km/h 45% 0 mm
03:24 12.4 °C 0.8 °C 1013.4 hPa South 3.2 km/h 8 km/h 45% 0 mm
03:29 12.5 °C 0.9 °C 1013.4 hPa South 3.2 km/h 8 km/h 45% 0 mm
03:34 12.7 °C 0.8 °C 1013.4 hPa South 3.2 km/h 6.4 km/h 44% 0 mm
03:39 12.9 °C 0.9 °C 1013.4 hPa South 4.8 km/h 8 km/h 44% 0 mm
03:44 13.2 °C 0.8 °C 1013.4 hPa South 4.8 km/h 11.3 km/h 43% 0 mm
03:49 13.6 °C 0.9 °C 1013.4 hPa South 4.8 km/h 9.7 km/h 42% 0 mm
03:54 13.8 °C 1.1 °C 1013.4 hPa South 3.2 km/h 6.4 km/h 42% 0 mm
03:59 13.9 °C 0.9 °C 1013.1 hPa SSE 1.6 km/h 8 km/h 41% 0 mm
04:04 14.2 °C 0.7 °C 1013.4 hPa SSW 11.3 km/h 12.9 km/h 40% 0 mm
04:09 14.6 °C 0.8 °C 1013.1 hPa South 4.8 km/h 14.5 km/h 39% 0 mm
04:14 14.8 °C 0.6 °C 1013.1 hPa South 4.8 km/h 9.7 km/h 38% 0 mm
04:19 15.1 °C 0.5 °C 1013.4 hPa South 4.8 km/h 9.7 km/h 37% 0 mm
04:24 15.2 °C 0.6 °C 1013.4 hPa South 4.8 km/h 9.7 km/h 37% 0 mm
04:29 15.4 °C 0.4 °C 1013.4 hPa South 6.4 km/h 12.9 km/h 36% 0 mm
04:34 15.6 °C 0.5 °C 1013.4 hPa South 6.4 km/h 12.9 km/h 36% 0 mm
04:39 15.8 °C 0.3 °C 1013.4 hPa SSW 6.4 km/h 14.5 km/h 35% 0 mm
04:44 15.9 °C 0.5 °C 1013.1 hPa SSW 8 km/h 14.5 km/h 35% 0 mm
04:49 16.2 °C 0.3 °C 1013.1 hPa South 8 km/h 14.5 km/h 34% 0 mm
04:54 16.3 °C 0.4 °C 1013.1 hPa SSW 6.4 km/h 16.1 km/h 34% 0 mm
04:59 16.4 °C 0.5 °C 1013.1 hPa SSW 12.9 km/h 12.9 km/h 34% 0 mm
05:04 16.6 °C -0.2 °C 1013.1 hPa South 12.9 km/h 17.7 km/h 32% 0 mm
05:09 16.9 °C 0.1 °C 1013.1 hPa SW 8 km/h 16.1 km/h 32% 0 mm
05:14 17.1 °C 0.2 °C 1013.1 hPa South 3.2 km/h 12.9 km/h 32% 0 mm
05:19 17.1 °C 0.2 °C 1012.8 hPa SSW 8 km/h 20.9 km/h 32% 0 mm
05:24 17.2 °C 0.3 °C 1012.8 hPa SSW 8 km/h 20.9 km/h 32% 0 mm
05:29 17.2 °C -0.1 °C 1012.8 hPa South 9.7 km/h 24.1 km/h 31% 0 mm
05:34 17.3 °C -0.1 °C 1012.8 hPa SSE 4.8 km/h 19.3 km/h 31% 0 mm
05:39 17.2 °C -0.1 °C 1012.8 hPa South 8 km/h 17.7 km/h 31% 0 mm
05:44 17.3 °C 0.4 °C 1012.8 hPa SW 6.4 km/h 22.5 km/h 32% 0 mm
05:49 17.3 °C -0.1 °C 1012.8 hPa SSW 8 km/h 22.5 km/h 31% 0 mm
05:54 17.3 °C -0.1 °C 1012.8 hPa SSW 9.7 km/h 24.1 km/h 31% 0 mm
05:59 17.3 °C -0.1 °C 1012.8 hPa SSW 9.7 km/h 24.1 km/h 31% 0 mm
06:04 17.3 °C 0 °C 1012.8 hPa SSW 8 km/h 24.1 km/h 31% 0 mm
06:09 17.3 °C -0.1 °C 1012.8 hPa South 8 km/h 20.9 km/h 31% 0 mm
06:14 17.3 °C -0.1 °C 1012.8 hPa SSW 11.3 km/h 16.1 km/h 31% 0 mm
06:19 17.3 °C 0 °C 1012.8 hPa SSW 8 km/h 20.9 km/h 31% 0 mm
06:24 17.4 °C 0.1 °C 1012.8 hPa SSW 11.3 km/h 24.1 km/h 31% 0 mm
06:29 17.4 °C 0.1 °C 1012.8 hPa South 4.8 km/h 22.5 km/h 31% 0 mm
06:34 17.4 °C -0.3 °C 1012.8 hPa South 14.5 km/h 20.9 km/h 30% 0 mm
06:39 17.5 °C -0.3 °C 1012.4 hPa SW 6.4 km/h 22.5 km/h 30% 0 mm
06:44 17.6 °C -0.2 °C 1012.8 hPa South 11.3 km/h 24.1 km/h 30% 0 mm
06:49 17.6 °C -0.2 °C 1012.8 hPa SSW 11.3 km/h 24.1 km/h 30% 0 mm
06:54 17.6 °C 0.2 °C 1012.8 hPa SSW 9.7 km/h 20.9 km/h 31% 0 mm
06:59 17.6 °C 0.2 °C 1012.8 hPa SSW 9.7 km/h 20.9 km/h 31% 0 mm
07:04 17.6 °C 0.2 °C 1012.8 hPa SSW 9.7 km/h 17.7 km/h 31% 0 mm
07:09 17.5 °C 0.2 °C 1012.8 hPa SSW 8 km/h 16.1 km/h 31% 0 mm
07:14 17.5 °C 0.2 °C 1012.8 hPa SW 9.7 km/h 22.5 km/h 31% 0 mm
07:19 17.6 °C 0.2 °C 1012.8 hPa SW 11.3 km/h 14.5 km/h 31% 0 mm
07:24 17.6 °C 0.3 °C 1012.8 hPa South 8 km/h 22.5 km/h 31% 0 mm
07:29 17.7 °C 0.3 °C 1012.8 hPa SW 6.4 km/h 19.3 km/h 31% 0 mm
07:34 17.7 °C 0.3 °C 1012.8 hPa SSW 11.3 km/h 25.7 km/h 31% 0 mm
07:39 17.8 °C 0.4 °C 1012.8 hPa South 6.4 km/h 24.1 km/h 31% 0 mm
07:44 17.8 °C 0.4 °C 1012.8 hPa South 11.3 km/h 24.1 km/h 31% 0 mm
07:49 17.8 °C 0.4 °C 1012.8 hPa SSW 11.3 km/h 25.7 km/h 31% 0 mm
07:54 17.9 °C 0.5 °C 1012.8 hPa SSW 11.3 km/h 25.7 km/h 31% 0 mm
07:59 17.9 °C 0.6 °C 1012.8 hPa South 11.3 km/h 25.7 km/h 31% 0 mm
08:04 18 °C 1.1 °C 1012.8 hPa SSW 9.7 km/h 19.3 km/h 32% 0 mm
08:09 18.1 °C 1.1 °C 1012.8 hPa SSW 6.4 km/h 19.3 km/h 32% 0 mm
08:14 18.1 °C 1.2 °C 1013.1 hPa South 12.9 km/h 17.7 km/h 32% 0 mm
08:19 18.2 °C 1.2 °C 1013.1 hPa SSW 9.7 km/h 24.1 km/h 32% 0 mm
08:24 18.3 °C 1.3 °C 1013.1 hPa SSW 9.7 km/h 24.1 km/h 32% 0 mm
08:29 18.5 °C 1.1 °C 1013.1 hPa South 9.7 km/h 19.3 km/h 31% 0 mm
08:34 18.6 °C 2 °C 1013.1 hPa South 4.8 km/h 22.5 km/h 33% 0 mm
08:39 18.8 °C 1.3 °C 1012.8 hPa South 14.5 km/h 25.7 km/h 31% 0 mm
08:44 18.9 °C 1.9 °C 1012.8 hPa South 11.3 km/h 20.9 km/h 32% 0 mm
08:49 19.1 °C 1.5 °C 1012.8 hPa SSW 9.7 km/h 25.7 km/h 31% 0 mm
08:54 19.2 °C 2.1 °C 1012.8 hPa SSW 11.3 km/h 25.7 km/h 32% 0 mm
08:59 19.3 °C 2.2 °C 1012.8 hPa SSW 11.3 km/h 24.1 km/h 32% 0 mm
09:04 19.4 °C 2.7 °C 1012.8 hPa SSW 9.7 km/h 22.5 km/h 33% 0 mm
09:09 19.6 °C 2.4 °C 1013.1 hPa South 6.4 km/h 17.7 km/h 32% 0 mm
09:14 19.8 °C 2.6 °C 1013.1 hPa SW 6.4 km/h 22.5 km/h 32% 0 mm
09:19 19.9 °C 2.7 °C 1013.1 hPa SSW 9.7 km/h 22.5 km/h 32% 0 mm
09:24 20.1 °C 3.3 °C 1013.1 hPa SSW 11.3 km/h 24.1 km/h 33% 0 mm
09:29 20.3 °C 3.1 °C 1013.1 hPa SSW 11.3 km/h 24.1 km/h 32% 0 mm
09:34 20.5 °C 3.2 °C 1013.1 hPa SSW 11.3 km/h 27.4 km/h 32% 0 mm
09:39 20.7 °C 2.9 °C 1013.1 hPa South 11.3 km/h 27.4 km/h 31% 0 mm
09:44 20.9 °C 3.6 °C 1013.1 hPa South 11.3 km/h 17.7 km/h 32% 0 mm
09:49 20.9 °C 3.6 °C 1013.1 hPa SSW 12.9 km/h 32.2 km/h 32% 0 mm
09:54 20.8 °C 3.9 °C 1013.1 hPa SSW 14.5 km/h 32.2 km/h 33% 0 mm
09:59 20.8 °C 3.5 °C 1013.1 hPa SSW 12.9 km/h 27.4 km/h 32% 0 mm
10:04 20.8 °C 3.4 °C 1013.1 hPa SSW 11.3 km/h 32.2 km/h 32% 0 mm
10:09 20.8 °C 3.9 °C 1013.1 hPa SSW 9.7 km/h 33.8 km/h 33% 0 mm
10:14 20.7 °C 3.8 °C 1013.1 hPa South 9.7 km/h 25.7 km/h 33% 0 mm
10:19 20.8 °C 4.3 °C 1013.1 hPa SSW 11.3 km/h 25.7 km/h 34% 0 mm
10:24 20.8 °C 4.4 °C 1013.1 hPa SSW 11.3 km/h 25.7 km/h 34% 0 mm
10:29 21 °C 4.6 °C 1013.1 hPa SSW 11.3 km/h 25.7 km/h 34% 0 mm
10:34 21.2 °C 4.7 °C 1013.1 hPa SSW 11.3 km/h 22.5 km/h 34% 0 mm
10:39 21.5 °C 4.9 °C 1013.1 hPa WSW 16.1 km/h 32.2 km/h 34% 0 mm
10:44 21.7 °C 5.2 °C 1013.1 hPa SSW 12.9 km/h 32.2 km/h 34% 0 mm
10:49 21.9 °C 4.9 °C 1013.4 hPa SSW 12.9 km/h 30.6 km/h 33% 0 mm
10:54 21.8 °C 5.3 °C 1013.4 hPa South 12.9 km/h 25.7 km/h 34% 0 mm
10:59 21.8 °C 5.2 °C 1013.1 hPa SW 9.7 km/h 27.4 km/h 34% 0 mm
11:04 21.8 °C 5.6 °C 1013.1 hPa WSW 12.9 km/h 25.7 km/h 35% 0 mm
11:09 21.7 °C 5.6 °C 1013.1 hPa SW 12.9 km/h 27.4 km/h 35% 0 mm
11:14 21.9 °C 6.1 °C 1013.1 hPa SW 8 km/h 24.1 km/h 36% 0 mm
11:19 22.2 °C 6.4 °C 1013.4 hPa SSW 12.9 km/h 25.7 km/h 36% 0 mm
11:24 22.4 °C 6.2 °C 1013.4 hPa SSW 12.9 km/h 33.8 km/h 35% 0 mm
11:29 22.5 °C 6.7 °C 1013.4 hPa SSW 12.9 km/h 33.8 km/h 36% 0 mm
11:34 22.7 °C 6.4 °C 1013.4 hPa SW 14.5 km/h 29 km/h 35% 0 mm
11:39 22.9 °C 6.6 °C 1013.4 hPa SW 14.5 km/h 33.8 km/h 35% 0 mm
11:44 22.9 °C 6.7 °C 1013.4 hPa South 32.2 km/h 33.8 km/h 35% 0 mm
11:49 22.8 °C 6.9 °C 1013.4 hPa SW 14.5 km/h 33.8 km/h 36% 0 mm
11:54 22.9 °C 7.4 °C 1013.4 hPa SW 12.9 km/h 32.2 km/h 37% 0 mm
11:59 22.9 °C 7.4 °C 1013.4 hPa SW 14.5 km/h 29 km/h 37% 0 mm
12:04 22.9 °C 7.9 °C 1013.1 hPa SW 16.1 km/h 35.4 km/h 38% 0 mm
12:09 23 °C 7.5 °C 1013.1 hPa South 17.7 km/h 30.6 km/h 37% 0 mm
12:14 23.1 °C 7.6 °C 1013.4 hPa South 9.7 km/h 43.5 km/h 37% 0 mm
12:19 23.3 °C 7.8 °C 1013.4 hPa SW 16.1 km/h 43.5 km/h 37% 0 mm
12:24 23.4 °C 7.5 °C 1013.4 hPa SSW 12.9 km/h 32.2 km/h 36% 0 mm
12:29 23.6 °C 8.4 °C 1013.4 hPa WSW 16.1 km/h 24.1 km/h 38% 0 mm
12:34 23.8 °C 8.3 °C 1013.4 hPa SW 12.9 km/h 27.4 km/h 37% 0 mm
12:39 23.9 °C 8.3 °C 1013.4 hPa WSW 17.7 km/h 37 km/h 37% 0 mm
12:44 23.9 °C 8.3 °C 1013.4 hPa SSW 29 km/h 30.6 km/h 37% 0 mm
12:49 23.9 °C 8.3 °C 1013.4 hPa SW 17.7 km/h 32.2 km/h 37% 0 mm
12:54 23.9 °C 8.3 °C 1013.4 hPa SW 16.1 km/h 32.2 km/h 37% 0 mm
12:59 23.9 °C 8.3 °C 1013.4 hPa SW 16.1 km/h 33.8 km/h 37% 0 mm
13:04 23.7 °C 8.6 °C 1013.4 hPa WSW 17.7 km/h 33.8 km/h 38% 0 mm
13:09 23.7 °C 8.6 °C 1013.4 hPa WSW 17.7 km/h 33.8 km/h 38% 0 mm
13:14 23.8 °C 8.6 °C 1013.4 hPa WNW 22.5 km/h 38.6 km/h 38% 0 mm
13:19 23.7 °C 9.3 °C 1013.4 hPa WSW 19.3 km/h 38.6 km/h 40% 0 mm
13:24 23.9 °C 9.1 °C 1013.4 hPa WSW 9.7 km/h 33.8 km/h 39% 0 mm
13:29 24 °C 8.8 °C 1013.4 hPa SE 11.3 km/h 38.6 km/h 38% 0 mm
13:34 24.1 °C 9.6 °C 1013.1 hPa WSW 19.3 km/h 32.2 km/h 40% 0 mm
13:39 24.2 °C 8.9 °C 1013.1 hPa South 24.1 km/h 35.4 km/h 38% 0 mm
13:44 24.3 °C 9.4 °C 1013.4 hPa SW 14.5 km/h 30.6 km/h 39% 0 mm
13:49 24.2 °C 9.3 °C 1013.1 hPa WNW 16.1 km/h 30.6 km/h 39% 0 mm
13:54 24.1 °C 8.8 °C 1013.1 hPa WSW 17.7 km/h 33.8 km/h 38% 0 mm
14:04 23.7 °C 9.7 °C 1012.8 hPa WSW 17.7 km/h 38.6 km/h 41% 0 mm
14:09 23.8 °C 9.1 °C 1012.8 hPa SW 17.7 km/h 35.4 km/h 39% 0 mm
14:14 23.9 °C 9.4 °C 1012.8 hPa WSW 20.9 km/h 35.4 km/h 40% 0 mm
14:19 23.7 °C 8.9 °C 1012.4 hPa WSW 19.3 km/h 35.4 km/h 39% 0 mm
14:24 23.5 °C 9.1 °C 1012.4 hPa SW 20.9 km/h 38.6 km/h 40% 0 mm
14:29 23.6 °C 9.2 °C 1012.4 hPa West 14.5 km/h 37 km/h 40% 0 mm
14:34 23.8 °C 9.4 °C 1012.4 hPa SSW 11.3 km/h 33.8 km/h 40% 0 mm
14:39 23.7 °C 8.9 °C 1012.4 hPa West 8 km/h 37 km/h 39% 0 mm
14:44 23.6 °C 9.2 °C 1012.4 hPa WNW 17.7 km/h 33.8 km/h 40% 0 mm
14:49 23.4 °C 9.1 °C 1012.8 hPa SW 24.1 km/h 38.6 km/h 40% 0 mm
14:54 23.3 °C 8.9 °C 1012.8 hPa WSW 19.3 km/h 38.6 km/h 40% 0 mm
14:59 23.2 °C 8.4 °C 1012.8 hPa WSW 19.3 km/h 35.4 km/h 39% 0 mm
15:04 22.9 °C 8.2 °C 1013.1 hPa WSW 19.3 km/h 37 km/h 39% 0 mm
15:09 22.5 °C 7.8 °C 1013.4 hPa WSW 19.3 km/h 37 km/h 39% 0 mm
15:14 22.1 °C 7.8 °C 1013.4 hPa WSW 19.3 km/h 37 km/h 40% 0 mm
15:19 21.8 °C 8.3 °C 1013.4 hPa WSW 22.5 km/h 35.4 km/h 42% 0 mm
15:24 21.7 °C 8.2 °C 1013.4 hPa WSW 17.7 km/h 35.4 km/h 42% 0 mm
15:29 21.8 °C 8.3 °C 1013.4 hPa SW 20.9 km/h 45.1 km/h 42% 0 mm
15:34 21.8 °C 8.3 °C 1013.4 hPa SW 14.5 km/h 29 km/h 42% 0 mm
15:39 21.9 °C 8.8 °C 1013.8 hPa NW 11.3 km/h 37 km/h 43% 0 mm
15:44 21.9 °C 8.4 °C 1013.8 hPa WNW 12.9 km/h 35.4 km/h 42% 0 mm
15:49 21.9 °C 8.7 °C 1013.4 hPa West 24.1 km/h 38.6 km/h 43% 0 mm
15:54 21.9 °C 8.7 °C 1013.4 hPa WSW 17.7 km/h 38.6 km/h 43% 0 mm
15:59 22.2 °C 8.7 °C 1013.4 hPa WSW 17.7 km/h 33.8 km/h 42% 0 mm
16:04 22.3 °C 8.8 °C 1013.1 hPa WSW 16.1 km/h 33.8 km/h 42% 0 mm
16:09 22.5 °C 8.6 °C 1012.8 hPa WSW 12.9 km/h 33.8 km/h 41% 0 mm
16:14 22.3 °C 8.4 °C 1012.8 hPa SW 16.1 km/h 25.7 km/h 41% 0 mm
16:19 22.1 °C 8.6 °C 1012.4 hPa SW 9.7 km/h 27.4 km/h 42% 0 mm
16:24 21.8 °C 8.3 °C 1012.4 hPa SW 12.9 km/h 27.4 km/h 42% 0 mm
16:29 21.3 °C 8.6 °C 1011.4 hPa SW 12.9 km/h 27.4 km/h 44% 0 mm
16:34 21.2 °C 8.8 °C 1011.1 hPa SW 11.3 km/h 29 km/h 45% 0 mm
16:39 21.2 °C 8.8 °C 1011.1 hPa SW 6.4 km/h 20.9 km/h 45% 0 mm
16:44 21.3 °C 8.9 °C 1011.4 hPa WSW 6.4 km/h 17.7 km/h 45% 0 mm
16:49 21.5 °C 9.4 °C 1011.1 hPa South 8 km/h 14.5 km/h 46% 0 mm
16:54 21.7 °C 9.6 °C 1011.4 hPa SW 8 km/h 14.5 km/h 46% 0 mm
16:59 21.8 °C 9.3 °C 1011.4 hPa SW 6.4 km/h 14.5 km/h 45% 0 mm
17:04 21.8 °C 9.4 °C 1011.4 hPa WSW 6.4 km/h 12.9 km/h 45% 0 mm
17:09 21.8 °C 9.4 °C 1011.7 hPa SW 6.4 km/h 12.9 km/h 45% 0 mm
17:14 21.9 °C 9.4 °C 1011.7 hPa WSW 4.8 km/h 11.3 km/h 45% 0 mm
17:24 22.5 °C 9.9 °C 1012.4 hPa West 6.4 km/h 12.9 km/h 45% 0 mm
17:29 22.8 °C 9.9 °C 1012.4 hPa WNW 8 km/h 14.5 km/h 44% 0 mm
17:34 23.1 °C 9.4 °C 1012.8 hPa West 11.3 km/h 19.3 km/h 42% 0 mm
17:39 23 °C 9.7 °C 1012.8 hPa WNW 8 km/h 16.1 km/h 43% 0 mm
17:44 22.8 °C 9.6 °C 1012.8 hPa NW 9.7 km/h 12.9 km/h 43% 0 mm
17:49 22.6 °C 9.7 °C 1012.8 hPa WNW 4.8 km/h 14.5 km/h 44% 0 mm
17:54 22.6 °C 10 °C 1012.8 hPa WNW 6.4 km/h 16.1 km/h 45% 0 mm
17:59 22.7 °C 10.1 °C 1013.1 hPa WNW 6.4 km/h 16.1 km/h 45% 0 mm
18:04 22.8 °C 10.2 °C 1013.1 hPa NW 8 km/h 11.3 km/h 45% 0 mm
18:09 22.8 °C 10.6 °C 1013.1 hPa WNW 14.5 km/h 17.7 km/h 46% 0 mm
18:14 22.8 °C 10.3 °C 1013.1 hPa WNW 8 km/h 14.5 km/h 45% 0 mm
18:19 22.9 °C 10.3 °C 1013.1 hPa West 4.8 km/h 16.1 km/h 45% 0 mm
18:24 22.8 °C 10.3 °C 1013.1 hPa WNW 6.4 km/h 16.1 km/h 45% 0 mm
18:29 22.9 °C 10.3 °C 1013.4 hPa West 6.4 km/h 12.9 km/h 45% 0 mm
18:34 22.9 °C 10.3 °C 1013.4 hPa West 8 km/h 19.3 km/h 45% 0 mm
18:39 22.9 °C 10.4 °C 1013.4 hPa West 8 km/h 19.3 km/h 45% 0 mm
18:44 22.9 °C 10.7 °C 1013.4 hPa West 4.8 km/h 14.5 km/h 46% 0 mm
18:49 22.9 °C 10.3 °C 1013.4 hPa West 3.2 km/h 12.9 km/h 45% 0 mm
18:54 22.8 °C 10.6 °C 1013.4 hPa West 3.2 km/h 12.9 km/h 46% 0 mm
18:59 22.8 °C 10.2 °C 1013.8 hPa West 3.2 km/h 14.5 km/h 45% 0 mm
19:09 22.7 °C 10.1 °C 1013.8 hPa West 3.2 km/h 9.7 km/h 45% 0 mm
19:14 22.6 °C 10.4 °C 1013.8 hPa West 3.2 km/h 11.3 km/h 46% 0 mm
19:19 22.6 °C 10.3 °C 1013.8 hPa West 1.6 km/h 8 km/h 46% 0 mm
19:24 22.6 °C 10.3 °C 1013.4 hPa SW 3.2 km/h 8 km/h 46% 0 mm
19:29 22.3 °C 10.2 °C 1013.8 hPa SSW 3.2 km/h 8 km/h 46% 0 mm
19:34 22.2 °C 10 °C 1013.8 hPa SSW 4.8 km/h 9.7 km/h 46% 0 mm
19:39 21.8 °C 9.7 °C 1013.8 hPa SSW 4.8 km/h 9.7 km/h 46% 0 mm
19:44 21.4 °C 9.6 °C 1013.8 hPa South 4.8 km/h 11.3 km/h 47% 0 mm
19:49 20.9 °C 9.4 °C 1013.8 hPa South 3.2 km/h 8 km/h 48% 0 mm
19:54 20.4 °C 9.1 °C 1014.1 hPa SSE 9.7 km/h 12.9 km/h 48% 0 mm
19:59 19.8 °C 9.1 °C 1014.1 hPa South 6.4 km/h 12.9 km/h 50% 0 mm
20:04 19.4 °C 9 °C 1014.1 hPa South 8 km/h 12.9 km/h 51% 0 mm
20:09 19 °C 8.9 °C 1014.1 hPa South 6.4 km/h 11.3 km/h 52% 0 mm
20:14 18.7 °C 8.9 °C 1014.1 hPa South 6.4 km/h 11.3 km/h 53% 0 mm
20:19 18.4 °C 8.9 °C 1014.4 hPa SSW 4.8 km/h 8 km/h 54% 0 mm
20:24 18.3 °C 9.1 °C 1014.4 hPa South 3.2 km/h 9.7 km/h 55% 0 mm
20:29 18.1 °C 9.2 °C 1014.8 hPa South 9.7 km/h 14.5 km/h 56% 0 mm
20:34 17.9 °C 9.3 °C 1014.8 hPa SSW 3.2 km/h 9.7 km/h 57% 0 mm
20:39 17.8 °C 9.2 °C 1014.8 hPa South 6.4 km/h 11.3 km/h 57% 0 mm
20:44 17.7 °C 9.3 °C 1014.8 hPa SSW 6.4 km/h 11.3 km/h 58% 0 mm
20:49 17.4 °C 9.1 °C 1014.8 hPa SW 3.2 km/h 11.3 km/h 58% 0 mm
20:54 17.3 °C 9.2 °C 1014.8 hPa SW 11.3 km/h 11.3 km/h 59% 0 mm
20:59 17.2 °C 9.1 °C 1014.8 hPa SSW 4.8 km/h 11.3 km/h 59% 0 mm
21:04 17.2 °C 9.3 °C 1014.8 hPa SSW 4.8 km/h 11.3 km/h 60% 0 mm
21:09 17.1 °C 9.2 °C 1015.1 hPa SSW 4.8 km/h 9.7 km/h 60% 0 mm
21:14 17.1 °C 9.2 °C 1015.1 hPa SW 4.8 km/h 11.3 km/h 60% 0 mm
21:19 17 °C 9.4 °C 1015.1 hPa SW 4.8 km/h 11.3 km/h 61% 0 mm
21:24 16.9 °C 9.4 °C 1015.1 hPa SSW 4.8 km/h 8 km/h 61% 0 mm
21:29 16.9 °C 9.4 °C 1015.1 hPa SW 1.6 km/h 6.4 km/h 61% 0 mm
21:34 16.9 °C 9.6 °C 1014.8 hPa SSW 4.8 km/h 6.4 km/h 62% 0 mm
21:39 16.9 °C 10.6 °C 1015.1 hPa SSW 3.2 km/h 4.8 km/h 66% 0 mm
21:44 16.9 °C 11 °C 1015.1 hPa Calm   6.4 km/h 68% 0.25 mm
21:49 16.8 °C 11.1 °C 1015.1 hPa South 1.6 km/h 9.7 km/h 69% 1.02 mm
21:54 16.7 °C 11.4 °C 1014.8 hPa Calm   6.4 km/h 71% 1.02 mm
21:59 16.6 °C 11.6 °C 1015.1 hPa Calm   6.4 km/h 72% 1.02 mm
22:04 16.5 °C 11.7 °C 1015.1 hPa Calm   4.8 km/h 73% 1.02 mm
22:09 16.3 °C 11.5 °C 1015.1 hPa Calm   4.8 km/h 73% 1.02 mm
22:14 16.2 °C 11.6 °C 1015.1 hPa Calm   3.2 km/h 74% 1.02 mm
22:19 16.1 °C 11.7 °C 1015.1 hPa Calm     75% 1.02 mm
22:24 16 °C 11.8 °C 1015.1 hPa Calm     76% 1.02 mm
22:29 15.9 °C 11.7 °C 1015.1 hPa Calm     76% 1.02 mm
22:34 15.8 °C 11.6 °C 1015.1 hPa Calm     76% 1.02 mm
22:39 15.8 °C 11.8 °C 1015.1 hPa Calm     77% 1.02 mm
22:44 15.7 °C 11.7 °C 1015.1 hPa Calm     77% 0.76 mm
22:49 15.6 °C 11.6 °C 1015.1 hPa Calm     77% 0 mm
22:54 15.5 °C 11.5 °C 1015.1 hPa Calm     77% 0 mm
22:59 15.5 °C 11.7 °C 1015.1 hPa Calm     78% 0 mm
23:04 15.4 °C 11.6 °C 1015.1 hPa Calm     78% 0 mm
23:09 15.4 °C 11.6 °C 1015.8 hPa West 1.6 km/h 6.4 km/h 78% 0 mm
23:14 15.4 °C 11.6 °C 1015.5 hPa West 1.6 km/h 6.4 km/h 78% 0 mm
23:19 15.4 °C 11.6 °C 1015.5 hPa West 1.6 km/h 6.4 km/h 78% 0 mm
23:24 15.4 °C 11.4 °C 1015.5 hPa Calm   1.6 km/h 77% 0 mm
23:29 15.4 °C 11.4 °C 1015.5 hPa Calm     77% 0 mm
23:34 15.4 °C 11.4 °C 1015.5 hPa Calm     77% 0 mm
23:39 15.4 °C 11.4 °C 1015.1 hPa Calm     77% 0 mm
23:44 15.4 °C 11.4 °C 1015.1 hPa Calm     77% 0 mm
23:49 15.3 °C 11.3 °C 1015.1 hPa Calm     77% 0 mm
23:54 15.3 °C 11.3 °C 1015.1 hPa Calm   4.8 km/h 77% 0 mm
23:59 15.2 °C 10.9 °C 1015.1 hPa Calm   3.2 km/h 76% 0 mm
Buffalo, New York, USA
Compliments of Weather Underground - 2.5 mb